Flag for U.S.A. Weather past 2 weeks in Davis, California, U.S.A.

Now
38 °F

Clear.


Feels Like: 38 °F
Forecast: 36 / 53 °F
Wind: No wind

Location: Sacramento International Airport

Current Time: Dec 28, 2014 at 4:30:10 AM

Latest Report: Dec 28, 2014 at 3:53 AM


Visibility: 8 mi

Pressure: 30.33 "Hg

Humidity: 93%

Dew point: 36 °F

Location of DavisLocation

Historic Weather in Davis — Graph

°F

Davis temperature yesterday

Maximum temperature yesterday: 52 °F (at 1:53 PM)
Minimum temperature yesterday: 32 °F (at 2:53 AM)
Average temperature yesterday: 42 °F

Past Weeks' High & Low Weather Summary

 TemperatureHumidityPressure
High64 °F (Dec 21, 2:53 PM)100% (Dec 23, 3:53 AM)30.40 "Hg (Dec 23, 3:53 AM)
Low32 °F (Dec 27, 2:53 AM)45% (Dec 25, 1:53 PM)29.81 "Hg (Dec 16, 4:53 PM)
Average51 °F82%30.13 "Hg
* Reported Dec 13 2:53 AM — Dec 28 2:53 AM, Davis, Weather by CustomWeather, © 2014

Note: Actual official high and low records may vary slightly from our data, if they occured in-between our weather recording intervals... More about our weather records

Advertising

Davis weather history for previous 24 hours

 ConditionsComfort  
Time TempWeatherWind HumidityBarometerVisibility
2:53 AM
Dec 28
39 °FClear.3 mph89%30.36 "Hg9 mi
1:53 AM40 °FClear.No wind89%30.37 "Hg10 mi
12:53 AM40 °FClear.5 mph89%30.37 "Hg9 mi
11:53 PM
Dec 27
41 °FPassing clouds.6 mph89%30.38 "Hg9 mi
10:53 PM39 °FPassing clouds.5 mph89%30.38 "Hg8 mi
9:53 PM41 °FPassing clouds.No wind93%30.38 "Hg8 mi
8:53 PM42 °FPassing clouds.No wind89%30.39 "Hg10 mi
7:53 PM41 °FPassing clouds.3 mph93%30.39 "Hg10 mi
6:53 PM44 °FPassing clouds.3 mph76%30.37 "Hg10 mi
5:53 PM46 °FPassing clouds.No wind73%30.37 "Hg10 mi
4:53 PM48 °FPassing clouds.5 mph68%30.36 "Hg10 mi
3:53 PM50 °FPartly sunny.No wind61%30.34 "Hg9 mi
2:53 PM52 °FPassing clouds.5 mph55%30.35 "Hg10 mi
1:53 PM52 °FScattered clouds.No wind59%30.35 "Hg10 mi
12:53 PM51 °FPassing clouds.No wind56%30.36 "Hg10 mi
11:53 AM49 °FPassing clouds.No wind64%30.38 "Hg10 mi
10:53 AM46 °FPassing clouds.6 mph68%30.40 "Hg10 mi
9:53 AM44 °FScattered clouds.No wind71%30.40 "Hg10 mi
8:53 AM38 °FPartly sunny.No wind79%30.37 "Hg10 mi
7:53 AM33 °FScattered clouds.No wind85%30.34 "Hg10 mi
6:53 AM32 °FPassing clouds.No wind88%30.32 "Hg10 mi
5:53 AM32 °FClear.No wind88%30.30 "Hg10 mi
4:53 AM36 °FClear.3 mph89%30.29 "Hg10 mi
Weather by CustomWeather, © 2014

See weather overviewHow to use our weather pages